DW8313 Weather Reports


Display with metric or nautical units.
time (UTC)temp
F
wind
direction
speed
MPH
gust
MPH
rain 1hr
in
rain 24hr
in
rain mn
in
humidity
%
barometer
mb
20260906041404 72 86 0.0 1.0 0.00 0.00 0.00 39 1011.4
20260906041225 72 80 0.0 2.0 0.00 0.00 0.00 39 1011.3
20260906041004 72 80 0.0 2.0 0.00 0.00 0.00 39 1011.3
20260906040804 72 80 0.0 2.0 0.00 0.00 0.00 39 1011.3
20260906040625 73 80 0.0 2.0 0.00 0.00 0.00 39 1011.3
20260906040405 73 80 0.0 2.0 0.00 0.00 0.00 39 1011.3
20260906040205 73 96 0.0 2.0 0.00 0.00 0.00 39 1011.3
20260906040004 73 96 0.0 2.0 0.00 0.00 0.00 39 1011.3
20260906035804 73 96 0.0 2.0 0.00 0.00 0.00 39 1011.3
20260906035604 73 91 0.0 2.0 0.00 0.00 0.00 39 1011.3
20260906035404 73 91 0.0 2.0 0.00 0.00 0.00 39 1011.3
20260906035204 73 89 0.0 2.0 0.00 0.00 0.00 39 1011.3
20260906035025 73 89 0.0 2.0 0.00 0.00 0.00 39 1011.3
20260906034825 73 89 0.0 2.0 0.00 0.00 0.00 39 1011.3
20260906034604 73 95 0.0 1.0 0.00 0.00 0.00 39 1011.3
20260906034404 73 94 0.0 1.0 0.00 0.00 0.00 39 1011.3
20260906034204 73 93 0.0 1.0 0.00 0.00 0.00 39 1011.2
20260906034004 73 92 0.0 1.0 0.00 0.00 0.00 39 1011.2
20260906033804 73 90 0.0 1.0 0.00 0.00 0.00 39 1011.2
20260906033604 73 89 0.0 2.0 0.00 0.00 0.00 39 1011.2
20260906033404 73 89 0.0 2.0 0.00 0.00 0.00 39 1011.2
20260906033204 73 89 0.0 2.0 0.00 0.00 0.00 39 1011.2
20260906033004 73 89 0.0 2.0 0.00 0.00 0.00 39 1011.2
20260906032804 73 91 0.0 2.0 0.00 0.00 0.00 39 1011.2
20260906032604 73 96 0.0 2.0 0.00 0.00 0.00 39 1011.2
20260906032425 73 97 0.0 2.0 0.00 0.00 0.00 39 1011.2
20260906032204 73 98 0.0 2.0 0.00 0.00 0.00 39 1011.2
20260906032004 73 98 0.0 2.0 0.00 0.00 0.00 39 1011.2
20260906031805 73 97 0.0 2.0 0.00 0.00 0.00 39 1011.2
20260906031604 73 0 0.0 0.0 0.00 0.00 0.00 39 1011.2
20260906031404 73 97 0.0 3.0 0.00 0.00 0.00 39 1011.2
20260906031204 74 98 1.0 3.0 0.00 0.00 0.00 38 1011.1
20260906031025 74 99 1.0 3.0 0.00 0.00 0.00 38 1011.1
20260906030804 74 98 1.0 3.0 0.00 0.00 0.00 38 1011.1
20260906030605 74 98 1.0 3.0 0.00 0.00 0.00 38 1011.0
20260906030404 74 97 1.0 3.0 0.00 0.00 0.00 38 1011.1
20260906030204 74 95 1.0 3.0 0.00 0.00 0.00 38 1011.1
20260906030025 74 95 1.0 3.0 0.00 0.00 0.00 38 1011.1
20260906025804 74 95 1.0 2.0 0.00 0.00 0.00 38 1011.0
20260906025604 74 93 1.0 2.0 0.00 0.00 0.00 38 1011.0
20260906025404 74 94 0.0 2.0 0.00 0.00 0.00 38 1011.0
20260906025204 74 99 0.0 2.0 0.00 0.00 0.00 38 1011.0
20260906025004 74 92 0.0 1.0 0.00 0.00 0.00 38 1010.9
20260906024804 74 92 0.0 1.0 0.00 0.00 0.00 37 1011.0
20260906024604 74 0 0.0 0.0 0.00 0.00 0.00 37 1010.9
20260906024404 75 0 0.0 0.0 0.00 0.00 0.00 37 1010.9
20260906024204 75 0 0.0 0.0 0.00 0.00 0.00 37 1011.0
20260906024004 75 0 0.0 0.0 0.00 0.00 0.00 37 1010.9
20260906023804 75 0 0.0 0.0 0.00 0.00 0.00 37 1010.9
20260906023604 75 0 0.0 0.0 0.00 0.00 0.00 37 1010.9
20260906023404 75 0 0.0 0.0 0.00 0.00 0.00 37 1010.9
20260906023204 75 0 0.0 0.0 0.00 0.00 0.00 37 1010.9
20260906023004 76 0 0.0 0.0 0.00 0.00 0.00 36 1011.0
20260906022804 76 5 0.0 1.0 0.00 0.00 0.00 36 1010.9
20260906022604 76 5 0.0 1.0 0.00 0.00 0.00 36 1010.9
20260906022404 76 5 0.0 1.0 0.00 0.00 0.00 36 1010.9
20260906022204 76 5 0.0 1.0 0.00 0.00 0.00 36 1010.8
20260906022005 77 5 0.0 1.0 0.00 0.00 0.00 36 1010.8
20260906021804 77 33 0.0 1.0 0.00 0.00 0.00 36 1010.8
20260906021604 77 345 0.0 2.0 0.00 0.00 0.00 36 1010.8
20260906021404 77 342 0.0 2.0 0.00 0.00 0.00 35 1010.8
20260906021204 77 342 0.0 2.0 0.00 0.00 0.00 35 1010.8
20260906021004 77 342 0.0 2.0 0.00 0.00 0.00 35 1010.7
20260906020825 78 311 0.0 2.0 0.00 0.00 0.00 35 1010.7
20260906020604 78 295 0.0 2.0 0.00 0.00 0.00 35 1010.7
20260906020404 78 295 0.0 2.0 0.00 0.00 0.00 35 1010.7
20260906020225 78 288 0.0 2.0 0.00 0.00 0.00 35 1010.7
20260906020004 78 292 0.0 3.0 0.00 0.00 0.00 34 1010.7
20260906015804 78 291 0.0 3.0 0.00 0.00 0.00 34 1010.7
20260906015604 78 297 0.0 3.0 0.00 0.00 0.00 34 1010.7
20260906015425 78 297 0.0 3.0 0.00 0.00 0.00 34 1010.6
20260906015225 78 311 0.0 3.0 0.00 0.00 0.00 34 1010.6
20260906015004 79 309 0.0 2.0 0.00 0.00 0.00 34 1010.6
20260906014804 79 307 0.0 3.0 0.00 0.00 0.00 34 1010.6
20260906014604 79 306 0.0 3.0 0.00 0.00 0.00 34 1010.6
20260906014405 79 313 1.0 5.0 0.00 0.00 0.00 33 1010.6
20260906014225 79 311 1.0 5.0 0.00 0.00 0.00 34 1010.5
20260906014004 79 309 1.0 5.0 0.00 0.00 0.00 33 1010.5
20260906013604 80 318 1.0 5.0 0.00 0.00 0.00 33 1010.5
20260906013404 80 317 1.0 4.0 0.00 0.00 0.00 33 1010.5
20260906013204 80 317 1.0 4.0 0.00 0.00 0.00 33 1010.6
20260906013004 80 313 1.0 4.0 0.00 0.00 0.00 33 1010.6
20260906012825 80 296 1.0 4.0 0.00 0.00 0.00 33 1010.6
20260906012604 80 298 1.0 5.0 0.00 0.00 0.00 32 1010.6
20260906012404 80 296 1.0 6.0 0.00 0.00 0.00 32 1010.6
20260906012204 80 295 2.0 6.0 0.00 0.00 0.00 32 1010.6
20260906012004 80 296 2.0 6.0 0.00 0.00 0.00 32 1010.7
20260906011804 80 295 3.0 6.0 0.00 0.00 0.00 31 1010.7
20260906011605 80 293 2.0 6.0 0.00 0.00 0.00 31 1010.7
20260906011404 81 292 2.0 6.0 0.00 0.00 0.00 31 1010.7
20260906011204 81 291 2.0 5.0 0.00 0.00 0.00 31 1010.7
20260906011004 81 293 2.0 6.0 0.00 0.00 0.00 31 1010.7
20260906010804 81 293 2.0 6.0 0.00 0.00 0.00 31 1010.7
20260906010604 81 291 2.0 7.0 0.00 0.00 0.00 31 1010.7
20260906010404 81 291 3.0 7.0 0.00 0.00 0.00 30 1010.7
20260906010204 81 291 3.0 7.0 0.00 0.00 0.00 30 1010.7
20260906010025 81 289 3.0 7.0 0.00 0.00 0.00 30 1010.7
20260906005804 81 288 3.0 7.0 0.00 0.00 0.00 30 1010.7
20260906005604 81 290 3.0 7.0 0.00 0.00 0.00 30 1010.7
20260906005404 82 292 2.0 6.0 0.00 0.00 0.00 30 1010.7
20260906005204 82 293 2.0 6.0 0.00 0.00 0.00 29 1010.7
20260906005004 82 297 2.0 6.0 0.00 0.00 0.00 29 1010.6
20260906004804 82 297 2.0 4.0 0.00 0.00 0.00 29 1010.6
20260906004604 82 296 2.0 4.0 0.00 0.00 0.00 29 1010.6
20260906004404 82 296 2.0 4.0 0.00 0.00 0.00 28 1010.7
20260906004204 82 295 2.0 4.0 0.00 0.00 0.00 28 1010.6
20260906004004 82 294 2.0 5.0 0.00 0.00 0.00 28 1010.6
20260906003804 82 293 2.0 5.0 0.00 0.00 0.00 28 1010.6
20260906003604 82 295 2.0 5.0 0.00 0.00 0.00 29 1010.6
20260906003404 82 296 2.0 5.0 0.00 0.00 0.00 29 1010.6
20260906003204 82 298 2.0 5.0 0.00 0.00 0.00 28 1010.6
20260906003004 82 300 1.0 4.0 0.00 0.00 0.00 28 1010.5
20260906002804 82 306 1.0 4.0 0.00 0.00 0.00 28 1010.5
20260906002604 82 326 1.0 5.0 0.00 0.00 0.00 28 1010.4
20260906002404 82 325 1.0 5.0 0.00 0.00 0.00 28 1010.4
20260906002225 82 327 1.0 5.0 0.00 0.00 0.00 28 1010.4
20260906002004 82 317 1.0 5.0 0.00 0.00 0.00 28 1010.4
20260906001825 82 314 2.0 5.0 0.00 0.00 0.00 28 1010.4
20260906001625 82 307 2.0 5.0 0.00 0.00 0.00 28 1010.4
20260906001404 82 301 2.0 5.0 0.00 0.00 0.00 28 1010.4
20260906001204 82 295 2.0 5.0 0.00 0.00 0.00 28 1010.4
20260906001004 82 295 1.0 4.0 0.00 0.00 0.00 27 1010.4
20260906000804 82 292 1.0 4.0 0.00 0.00 0.00 27 1010.4
20260906000604 82 290 1.0 4.0 0.00 0.00 0.00 27 1010.3
20260906000426 82 290 1.0 4.0 0.00 0.00 0.00 27 1010.4
20260906000205 82 291 0.0 4.0 0.00 0.00 0.00 28 1010.4
20260906000004 82 292 0.0 4.0 0.00 0.00 0.00 27 1010.4
20260905235804 82 298 1.0 4.0 0.00 0.00 0.00 27 1010.4
20260905235604 82 298 1.0 4.0 0.00 0.00 0.00 27 1010.5
20260905235404 82 304 1.0 4.0 0.00 0.00 0.00 28 1010.5
20260905235204 82 314 1.0 5.0 0.00 0.00 0.00 27 1010.5
20260905235004 82 326 1.0 5.0 0.00 0.00 0.00 28 1010.4
20260905234825 82 335 1.0 6.0 0.00 0.00 0.00 27 1010.4
20260905234604 82 325 2.0 8.0 0.00 0.00 0.00 27 1010.4
20260905234404 82 323 2.0 8.0 0.00 0.00 0.00 27 1010.4
20260905234204 82 306 2.0 8.0 0.00 0.00 0.00 27 1010.5
20260905234004 83 301 3.0 8.0 0.00 0.00 0.00 26 1010.5
20260905233825 83 298 3.0 8.0 0.00 0.00 0.00 27 1010.4
20260905233604 83 296 2.0 7.0 0.00 0.00 0.00 27 1010.4
20260905233404 83 292 2.0 7.0 0.00 0.00 0.00 26 1010.4
20260905233204 83 313 1.0 6.0 0.00 0.00 0.00 28 1010.4
20260905233004 83 122 1.0 5.0 0.00 0.00 0.00 29 1010.3
20260905232804 83 124 1.0 5.0 0.00 0.00 0.00 28 1010.3
20260905232604 84 132 1.0 5.0 0.00 0.00 0.00 28 1010.3
20260905232404 84 147 1.0 5.0 0.00 0.00 0.00 28 1010.3
20260905232225 84 183 1.0 6.0 0.00 0.00 0.00 28 1010.4
20260905232004 84 256 1.0 6.0 0.00 0.00 0.00 29 1010.4
20260905231804 84 260 1.0 6.0 0.00 0.00 0.00 28 1010.4
20260905231604 84 308 1.0 6.0 0.00 0.00 0.00 28 1010.5
20260905231425 84 301 1.0 6.0 0.00 0.00 0.00 28 1010.5
20260905231225 84 310 1.0 5.0 0.00 0.00 0.00 29 1010.5
20260905231004 84 308 2.0 8.0 0.00 0.00 0.00 29 1010.5
20260905230804 84 307 2.0 8.0 0.00 0.00 0.00 29 1010.5
20260905230625 84 304 2.0 8.0 0.00 0.00 0.00 29 1010.5
20260905230405 84 310 2.0 8.0 0.00 0.00 0.00 29 1010.5
20260905230204 84 303 2.0 8.0 0.00 0.00 0.00 29 1010.5
20260905230004 84 310 2.0 6.0 0.00 0.00 0.00 29 1010.5
20260905225804 84 313 2.0 6.0 0.00 0.00 0.00 29 1010.5
20260905225604 84 302 2.0 6.0 0.00 0.00 0.00 29 1010.6
20260905225404 84 288 2.0 9.0 0.00 0.00 0.00 28 1010.6
20260905225204 84 295 2.0 9.0 0.00 0.00 0.00 29 1010.6
20260905225025 84 280 2.0 9.0 0.00 0.00 0.00 28 1010.6
20260905224804 84 266 2.0 9.0 0.00 0.00 0.00 28 1010.6
20260905224604 84 111 2.0 9.0 0.00 0.00 0.00 28 1010.6
20260905224404 84 120 2.0 7.0 0.00 0.00 0.00 27 1010.7
20260905224204 84 118 3.0 8.0 0.00 0.00 0.00 26 1010.6
20260905224004 84 119 2.0 8.0 0.00 0.00 0.00 26 1010.7
20260905223804 84 122 2.0 8.0 0.00 0.00 0.00 27 1010.7
20260905223604 84 116 3.0 9.0 0.00 0.00 0.00 26 1010.7
20260905223404 84 110 2.0 9.0 0.00 0.00 0.00 26 1010.7
20260905223204 84 113 2.0 9.0 0.00 0.00 0.00 27 1010.7
20260905223025 84 116 2.0 9.0 0.00 0.00 0.00 26 1010.8
20260905222804 84 113 2.0 9.0 0.00 0.00 0.00 26 1010.8
20260905222604 84 135 1.0 5.0 0.00 0.00 0.00 26 1010.8
20260905222404 85 203 2.0 5.0 0.00 0.00 0.00 26 1010.8
20260905222204 85 231 2.0 5.0 0.00 0.00 0.00 25 1010.9
20260905222004 85 221 2.0 8.0 0.00 0.00 0.00 26 1010.9
20260905221804 85 218 1.0 8.0 0.00 0.00 0.00 26 1010.9
20260905221625 85 226 2.0 8.0 0.00 0.00 0.00 25 1011.0
20260905221404 85 140 2.0 8.0 0.00 0.00 0.00 26 1011.0
20260905221204 85 135 2.0 8.0 0.00 0.00 0.00 25 1011.0
20260905221004 85 126 2.0 8.0 0.00 0.00 0.00 26 1011.0
20260905220804 84 132 2.0 8.0 0.00 0.00 0.00 27 1011.0
20260905220604 84 122 2.0 8.0 0.00 0.00 0.00 26 1011.0
20260905220404 84 128 3.0 11.0 0.00 0.00 0.00 26 1011.0
20260905220204 84 126 3.0 11.0 0.00 0.00 0.00 26 1011.1
20260905220004 84 131 4.0 11.0 0.00 0.00 0.00 27 1011.1
20260905215804 84 126 5.0 19.0 0.00 0.00 0.00 26 1011.1
20260905215604 84 130 5.0 19.0 0.00 0.00 0.00 26 1011.1
20260905215404 84 129 4.0 19.0 0.00 0.00 0.00 26 1011.2
20260905215204 84 134 3.0 19.0 0.00 0.00 0.00 27 1011.3
20260905215004 84 151 3.0 19.0 0.00 0.00 0.00 27 1011.2
20260905214804 84 210 2.0 7.0 0.00 0.00 0.00 27 1011.2
20260905214604 84 139 3.0 10.0 0.00 0.00 0.00 28 1011.3
20260905214404 84 129 4.0 10.0 0.00 0.00 0.00 26 1011.3
20260905214225 84 136 5.0 11.0 0.00 0.00 0.00 26 1011.4
20260905214004 84 124 5.0 11.0 0.00 0.00 0.00 26 1011.4
20260905213804 84 126 5.0 11.0 0.00 0.00 0.00 27 1011.3
20260905213604 84 128 5.0 11.0 0.00 0.00 0.00 27 1011.4
20260905213404 84 126 5.0 11.0 0.00 0.00 0.00 27 1011.4
20260905213204 84 120 5.0 12.0 0.00 0.00 0.00 27 1011.4
20260905213004 84 129 5.0 12.0 0.00 0.00 0.00 26 1011.4
20260905212804 84 130 5.0 12.0 0.00 0.00 0.00 26 1011.4
20260905212604 85 140 4.0 12.0 0.00 0.00 0.00 26 1011.4
20260905212425 86 164 4.0 12.0 0.00 0.00 0.00 26 1011.5
20260905212225 86 235 4.0 12.0 0.00 0.00 0.00 25 1011.4
20260905212025 86 289 3.0 7.0 0.00 0.00 0.00 25 1011.4
20260905211804 85 296 3.0 7.0 0.00 0.00 0.00 24 1011.4
20260905211625 85 294 4.0 11.0 0.00 0.00 0.00 24 1011.5
20260905211404 85 293 4.0 11.0 0.00 0.00 0.00 26 1011.5
20260905211204 85 296 4.0 11.0 0.00 0.00 0.00 25 1011.5
20260905211025 85 296 4.0 11.0 0.00 0.00 0.00 25 1011.5
20260905210825 85 294 3.0 11.0 0.00 0.00 0.00 25 1011.5
20260905210604 85 301 3.0 8.0 0.00 0.00 0.00 24 1011.6
20260905210404 85 93 3.0 8.0 0.00 0.00 0.00 25 1011.6
20260905210204 85 128 3.0 7.0 0.00 0.00 0.00 26 1011.8
20260905210004 84 118 3.0 7.0 0.00 0.00 0.00 26 1011.7
20260905205804 85 299 3.0 7.0 0.00 0.00 0.00 26 1011.7
20260905205604 85 296 2.0 7.0 0.00 0.00 0.00 26 1011.8
20260905205404 85 290 2.0 6.0 0.00 0.00 0.00 26 1011.8
20260905205204 85 294 2.0 6.0 0.00 0.00 0.00 27 1011.8
20260905205004 85 290 2.0 6.0 0.00 0.00 0.00 26 1011.8
20260905204804 85 283 2.0 6.0 0.00 0.00 0.00 25 1011.9
20260905204604 84 233 3.0 7.0 0.00 0.00 0.00 25 1012.0
20260905204404 84 186 3.0 7.0 0.00 0.00 0.00 28 1011.9
20260905204225 84 170 3.0 7.0 0.00 0.00 0.00 27 1012.0
20260905204004 83 174 2.0 7.0 0.00 0.00 0.00 26 1012.0
20260905203804 84 187 2.0 7.0 0.00 0.00 0.00 26 1012.0
20260905203625 83 257 2.0 7.0 0.00 0.00 0.00 26 1012.0
20260905203404 83 288 2.0 7.0 0.00 0.00 0.00 26 1012.0
20260905203204 83 292 3.0 8.0 0.00 0.00 0.00 27 1012.0
20260905203004 83 292 4.0 8.0 0.00 0.00 0.00 27 1012.1
20260905202804 83 292 4.0 9.0 0.00 0.00 0.00 27 1012.1
20260905202625 83 285 4.0 9.0 0.00 0.00 0.00 27 1012.1
20260905202404 84 249 4.0 9.0 0.00 0.00 0.00 26 1012.2
20260905202204 84 173 3.0 9.0 0.00 0.00 0.00 25 1012.2
20260905202025 84 154 4.0 9.0 0.00 0.00 0.00 26 1012.2
20260905201804 84 139 4.0 9.0 0.00 0.00 0.00 25 1012.2
20260905201604 84 140 3.0 9.0 0.00 0.00 0.00 24 1012.3
20260905201404 84 155 2.0 9.0 0.00 0.00 0.00 24 1012.3
20260905201204 84 176 2.0 9.0 0.00 0.00 0.00 24 1012.4
20260905201004 84 280 2.0 7.0 0.00 0.00 0.00 25 1012.3
20260905200804 84 279 2.0 7.0 0.00 0.00 0.00 25 1012.4
20260905200625 84 284 3.0 7.0 0.00 0.00 0.00 25 1012.3
20260905200404 84 288 2.0 7.0 0.00 0.00 0.00 24 1012.3
20260905200204 84 295 3.0 7.0 0.00 0.00 0.00 25 1012.3
20260905200004 84 295 2.0 7.0 0.00 0.00 0.00 26 1012.3
20260905195804 84 292 2.0 7.0 0.00 0.00 0.00 26 1012.3
20260905195604 84 293 3.0 12.0 0.00 0.00 0.00 26 1012.3
20260905195425 84 293 4.0 12.0 0.00 0.00 0.00 26 1012.4
20260905195204 84 295 4.0 12.0 0.00 0.00 0.00 27 1012.4
20260905195004 83 291 4.0 12.0 0.00 0.00 0.00 28 1012.4
20260905194804 83 293 4.0 12.0 0.00 0.00 0.00 28 1012.3
20260905194604 83 293 4.0 9.0 0.00 0.00 0.00 27 1012.4
20260905194404 83 292 4.0 8.0 0.00 0.00 0.00 26 1012.4
20260905194204 84 291 3.0 8.0 0.00 0.00 0.00 25 1012.4
20260905194025 84 296 2.0 8.0 0.00 0.00 0.00 25 1012.4
20260905193804 84 281 2.0 9.0 0.00 0.00 0.00 24 1012.4
20260905193604 84 279 2.0 9.0 0.00 0.00 0.00 25 1012.4
20260905193404 84 281 2.0 9.0 0.00 0.00 0.00 23 1012.4
20260905193204 84 281 2.0 9.0 0.00 0.00 0.00 22 1012.6
20260905193025 84 276 2.0 9.0 0.00 0.00 0.00 22 1012.6
20260905192804 83 283 3.0 9.0 0.00 0.00 0.00 22 1012.6
20260905192604 83 274 3.0 9.0 0.00 0.00 0.00 21 1012.6
20260905192404 83 270 3.0 9.0 0.00 0.00 0.00 23 1012.6
20260905192225 83 274 3.0 9.0 0.00 0.00 0.00 21 1012.8
20260905192004 84 283 3.0 9.0 0.00 0.00 0.00 22 1012.8
20260905191804 84 285 2.0 7.0 0.00 0.00 0.00 22 1012.8
20260905191604 84 277 2.0 5.0 0.00 0.00 0.00 24 1012.8
20260905191405 84 261 1.0 5.0 0.00 0.00 0.00 25 1012.8
20260905191205 84 171 1.0 5.0 0.00 0.00 0.00 25 1012.8
20260905191004 84 246 2.0 6.0 0.00 0.00 0.00 25 1012.9
20260905190804 83 266 2.0 6.0 0.00 0.00 0.00 24 1012.8
20260905190604 83 286 2.0 9.0 0.00 0.00 0.00 23 1012.9
20260905190405 83 292 2.0 9.0 0.00 0.00 0.00 24 1012.9
20260905190204 82 285 2.0 9.0 0.00 0.00 0.00 23 1012.9
20260905190004 82 286 2.0 9.0 0.00 0.00 0.00 21 1012.9
20260905185825 82 282 2.0 9.0 0.00 0.00 0.00 21 1013.0
20260905185625 81 267 2.0 8.0 0.00 0.00 0.00 21 1013.0
20260905185404 81 266 2.0 8.0 0.00 0.00 0.00 22 1013.1
20260905185204 81 274 3.0 7.0 0.00 0.00 0.00 21 1013.1
20260905185004 81 273 3.0 7.0 0.00 0.00 0.00 20 1013.0
20260905184825 81 274 3.0 7.0 0.00 0.00 0.00 21 1013.1
20260905184604 81 288 2.0 7.0 0.00 0.00 0.00 20 1013.0
20260905184425 81 294 2.0 6.0 0.00 0.00 0.00 20 1013.0
20260905184225 81 290 2.0 7.0 0.00 0.00 0.00 20 1013.1
20260905184004 81 294 3.0 8.0 0.00 0.00 0.00 21 1013.0
20260905183804 81 300 3.0 8.0 0.00 0.00 0.00 20 1013.0
20260905183604 81 300 3.0 8.0 0.00 0.00 0.00 20 1013.0
20260905183425 81 297 3.0 8.0 0.00 0.00 0.00 20 1013.0
20260905183205 81 301 4.0 8.0 0.00 0.00 0.00 21 1013.0
20260905183004 81 303 3.0 8.0 0.00 0.00 0.00 20 1013.0
20260905182804 81 301 3.0 8.0 0.00 0.00 0.00 21 1013.1
20260905182604 81 295 3.0 8.0 0.00 0.00 0.00 21 1013.1
20260905182404 81 293 3.0 8.0 0.00 0.00 0.00 21 1013.0
20260905182204 80 292 2.0 7.0 0.00 0.00 0.00 22 1013.1
20260905182004 80 288 2.0 7.0 0.00 0.00 0.00 21 1013.2
20260905181804 80 283 2.0 7.0 0.00 0.00 0.00 20 1013.1
20260905181604 80 292 2.0 5.0 0.00 0.00 0.00 20 1013.1
20260905181404 80 297 2.0 6.0 0.00 0.00 0.00 20 1013.2
20260905181204 80 297 2.0 6.0 0.00 0.00 0.00 22 1013.2
20260905181025 80 296 2.0 6.0 0.00 0.00 0.00 20 1013.2
20260905180804 81 300 2.0 6.0 0.00 0.00 0.00 20 1013.2
20260905180605 81 295 2.0 6.0 0.00 0.00 0.00 21 1013.2
20260905180404 81 290 2.0 5.0 0.00 0.00 0.00 21 1013.3
20260905180226 81 288 1.0 5.0 0.00 0.00 0.00 21 1013.2
20260905180004 80 292 2.0 6.0 0.00 0.00 0.00 22 1013.3
20260905175804 80 291 2.0 6.0 0.00 0.00 0.00 22 1013.2
20260905175604 80 296 2.0 6.0 0.00 0.00 0.00 23 1013.2
20260905175404 79 297 2.0 6.0 0.00 0.00 0.00 23 1013.1
20260905175225 79 296 2.0 6.0 0.00 0.00 0.00 22 1013.1
20260905175004 79 294 2.0 6.0 0.00 0.00 0.00 23 1013.2
20260905174804 79 295 2.0 7.0 0.00 0.00 0.00 24 1013.1
20260905174604 79 293 2.0 8.0 0.00 0.00 0.00 22 1013.1
20260905174404 79 289 2.0 8.0 0.00 0.00 0.00 22 1013.1
20260905174225 79 288 2.0 8.0 0.00 0.00 0.00 22 1013.0
20260905174004 79 289 2.0 8.0 0.00 0.00 0.00 22 1013.1
20260905173804 79 288 2.0 8.0 0.00 0.00 0.00 22 1013.0
20260905173604 79 291 3.0 7.0 0.00 0.00 0.00 22 1013.0
20260905173425 78 292 3.0 7.0 0.00 0.00 0.00 23 1013.0
20260905173204 79 297 3.0 7.0 0.00 0.00 0.00 24 1013.0
20260905173004 78 298 2.0 6.0 0.00 0.00 0.00 24 1013.0
20260905172825 78 297 2.0 6.0 0.00 0.00 0.00 23 1013.0
20260905172604 78 297 2.0 6.0 0.00 0.00 0.00 24 1012.9
20260905172404 78 298 2.0 6.0 0.00 0.00 0.00 24 1012.9
20260905172204 78 290 2.0 6.0 0.00 0.00 0.00 24 1012.9
20260905172004 78 288 2.0 6.0 0.00 0.00 0.00 24 1012.9
20260905171804 78 291 2.0 6.0 0.00 0.00 0.00 24 1012.9
20260905171604 78 287 1.0 5.0 0.00 0.00 0.00 24 1012.9
20260905171404 78 287 1.0 5.0 0.00 0.00 0.00 25 1012.9
20260905171204 78 287 1.0 5.0 0.00 0.00 0.00 25 1012.9
20260905171004 77 279 1.0 5.0 0.00 0.00 0.00 25 1012.9
20260905170804 77 269 1.0 5.0 0.00 0.00 0.00 25 1012.9
20260905170625 77 265 1.0 5.0 0.00 0.00 0.00 26 1012.9
20260905170404 77 269 1.0 5.0 0.00 0.00 0.00 25 1012.9
20260905170204 77 273 1.0 5.0 0.00 0.00 0.00 25 1012.9
20260905170004 77 288 0.0 4.0 0.00 0.00 0.00 25 1013.0
20260905165804 76 289 0.0 4.0 0.00 0.00 0.00 26 1013.0
20260905165604 76 295 0.0 4.0 0.00 0.00 0.00 26 1013.0
20260905165404 76 298 0.0 4.0 0.00 0.00 0.00 25 1013.0
20260905165204 76 307 0.0 1.0 0.00 0.00 0.00 26 1012.9
20260905165004 76 307 0.0 1.0 0.00 0.00 0.00 26 1012.9
20260905164804 76 307 0.0 1.0 0.00 0.00 0.00 27 1013.0
20260905164604 76 258 0.0 1.0 0.00 0.00 0.00 26 1012.9
20260905164404 75 252 0.0 1.0 0.00 0.00 0.00 26 1012.9
20260905164204 75 246 0.0 1.0 0.00 0.00 0.00 27 1012.9
20260905164004 75 246 0.0 1.0 0.00 0.00 0.00 27 1012.9
20260905163804 75 238 0.0 3.0 0.00 0.00 0.00 26 1012.9
20260905163604 75 238 0.0 3.0 0.00 0.00 0.00 27 1012.9
20260905163404 75 244 0.0 3.0 0.00 0.00 0.00 27 1012.9
20260905163225 75 244 0.0 3.0 0.00 0.00 0.00 27 1012.8
20260905163004 75 248 0.0 3.0 0.00 0.00 0.00 27 1012.9
20260905162804 75 296 0.0 4.0 0.00 0.00 0.00 28 1012.8
20260905162625 75 295 0.0 4.0 0.00 0.00 0.00 28 1012.9
20260905162404 74 295 0.0 4.0 0.00 0.00 0.00 28 1012.9
20260905162204 74 296 1.0 4.0 0.00 0.00 0.00 29 1012.9
20260905162004 74 300 1.0 4.0 0.00 0.00 0.00 29 1012.8
20260905161825 74 302 1.0 4.0 0.00 0.00 0.00 29 1012.7
20260905161604 74 303 0.0 4.0 0.00 0.00 0.00 29 1012.7
20260905161404 74 304 1.0 4.0 0.00 0.00 0.00 30 1012.6
20260905161204 74 306 0.0 4.0 0.00 0.00 0.00 29 1012.6
20260905161005 74 307 0.0 2.0 0.00 0.00 0.00 29 1012.6
20260905160804 73 307 0.0 2.0 0.00 0.00 0.00 30 1012.6
20260905160625 73 309 0.0 2.0 0.00 0.00 0.00 30 1012.6
20260905160404 73 281 0.0 2.0 0.00 0.00 0.00 30 1012.5
20260905160204 73 281 0.0 2.0 0.00 0.00 0.00 30 1012.5
20260905160004 73 281 0.0 2.0 0.00 0.00 0.00 29 1012.5
20260905155825 73 281 0.0 2.0 0.00 0.00 0.00 29 1012.6
20260905155625 73 281 0.0 2.0 0.00 0.00 0.00 30 1012.5
20260905155404 73 0 0.0 0.0 0.00 0.00 0.00 28 1012.5
20260905155204 73 0 0.0 0.0 0.00 0.00 0.00 29 1012.5
20260905155004 73 0 0.0 0.0 0.00 0.00 0.00 29 1012.5
20260905154804 73 0 0.0 0.0 0.00 0.00 0.00 28 1012.5
20260905154625 73 0 0.0 0.0 0.00 0.00 0.00 28 1012.5
20260905154404 73 0 0.0 0.0 0.00 0.00 0.00 30 1012.5
20260905154204 72 0 0.0 0.0 0.00 0.00 0.00 29 1012.4
20260905154004 73 0 0.0 0.0 0.00 0.00 0.00 29 1012.4
20260905153804 73 0 0.0 0.0 0.00 0.00 0.00 28 1012.5
20260905153604 73 0 0.0 0.0 0.00 0.00 0.00 29 1012.5
20260905153404 73 0 0.0 0.0 0.00 0.00 0.00 29 1012.4
20260905153204 74 0 0.0 0.0 0.00 0.00 0.00 29 1012.4
20260905153025 74 0 0.0 0.0 0.00 0.00 0.00 28 1012.4
20260905152804 75 0 0.0 0.0 0.00 0.00 0.00 29 1012.3
20260905152604 75 0 0.0 0.0 0.00 0.00 0.00 29 1012.4
20260905152404 74 0 0.0 0.0 0.00 0.00 0.00 29 1012.4
20260905152225 74 0 0.0 0.0 0.00 0.00 0.00 29 1012.4
20260905152004 74 0 0.0 0.0 0.00 0.00 0.00 29 1012.4
20260905151804 74 0 0.0 0.0 0.00 0.00 0.00 29 1012.4
20260905151605 73 0 0.0 0.0 0.00 0.00 0.00 29 1012.3
20260905151404 73 0 0.0 0.0 0.00 0.00 0.00 29 1012.3
20260905151204 73 0 0.0 0.0 0.00 0.00 0.00 29 1012.3
20260905151025 73 0 0.0 0.0 0.00 0.00 0.00 30 1012.2
20260905150825 73 0 0.0 0.0 0.00 0.00 0.00 31 1012.2
20260905150604 72 0 0.0 0.0 0.00 0.00 0.00 34 1012.3
20260905150404 72 0 0.0 0.0 0.00 0.00 0.00 33 1012.3
20260905150204 72 0 0.0 0.0 0.00 0.00 0.00 34 1012.2
20260905150004 71 0 0.0 0.0 0.00 0.00 0.00 32 1012.2
20260905145825 71 0 0.0 0.0 0.00 0.00 0.00 33 1012.2
20260905145604 71 0 0.0 0.0 0.00 0.00 0.00 34 1012.1
20260905145404 71 0 0.0 0.0 0.00 0.00 0.00 34 1012.1
20260905145204 70 0 0.0 0.0 0.00 0.00 0.00 35 1012.0
20260905145004 70 0 0.0 0.0 0.00 0.00 0.00 34 1012.0
20260905144804 70 0 0.0 0.0 0.00 0.00 0.00 35 1012.1
20260905144604 69 0 0.0 0.0 0.00 0.00 0.00 34 1012.1
20260905144404 69 0 0.0 0.0 0.00 0.00 0.00 34 1012.0
20260905144204 69 0 0.0 0.0 0.00 0.00 0.00 36 1012.0
20260905144025 68 0 0.0 0.0 0.00 0.00 0.00 36 1012.0
20260905143804 68 92 0.0 1.0 0.00 0.00 0.00 36 1011.9
20260905143604 67 121 0.0 1.0 0.00 0.00 0.00 36 1011.9
20260905143425 67 104 0.0 2.0 0.00 0.00 0.00 35 1011.9
20260905143204 67 95 1.0 4.0 0.00 0.00 0.00 35 1011.9
20260905143004 67 93 1.0 4.0 0.00 0.00 0.00 36 1011.9
20260905142804 67 95 2.0 4.0 0.00 0.00 0.00 36 1012.0
20260905142604 67 96 2.0 4.0 0.00 0.00 0.00 36 1011.9
20260905142404 67 96 2.0 4.0 0.00 0.00 0.00 36 1011.9
20260905142204 66 97 2.0 3.0 0.00 0.00 0.00 36 1011.9
20260905142025 66 98 2.0 3.0 0.00 0.00 0.00 36 1012.0
20260905141804 66 97 2.0 3.0 0.00 0.00 0.00 36 1012.0
20260905141604 65 95 2.0 3.0 0.00 0.00 0.00 37 1012.0
20260905141404 65 95 2.0 3.0 0.00 0.00 0.00 37 1012.0
20260905141204 65 94 2.0 3.0 0.00 0.00 0.00 37 1012.0
20260905141004 65 93 2.0 4.0 0.00 0.00 0.00 38 1012.0
20260905140804 64 91 2.0 4.0 0.00 0.00 0.00 38 1012.0
20260905140604 64 90 2.0 4.0 0.00 0.00 0.00 38 1012.0
20260905140425 64 88 2.0 4.0 0.00 0.00 0.00 38 1012.0
20260905140225 64 87 2.0 4.0 0.00 0.00 0.00 38 1012.0
20260905140004 64 87 2.0 4.0 0.00 0.00 0.00 38 1012.1
20260905135804 64 88 2.0 4.0 0.00 0.00 0.00 38 1012.1
20260905135604 64 87 2.0 3.0 0.00 0.00 0.00 38 1012.1
20260905135404 64 86 2.0 3.0 0.00 0.00 0.00 38 1012.0
20260905135225 65 85 1.0 3.0 0.00 0.00 0.00 38 1012.0
20260905135004 65 88 1.0 3.0 0.00 0.00 0.00 38 1012.0
20260905134804 65 98 1.0 3.0 0.00 0.00 0.00 38 1012.0
20260905134604 65 105 1.0 3.0 0.00 0.00 0.00 38 1011.9
20260905134404 65 108 1.0 3.0 0.00 0.00 0.00 38 1011.9
20260905134225 65 109 2.0 4.0 0.00 0.00 0.00 38 1012.0
20260905134004 64 111 2.0 4.0 0.00 0.00 0.00 38 1011.9
20260905133804 64 111 2.0 4.0 0.00 0.00 0.00 39 1011.8
20260905133604 64 112 1.0 4.0 0.00 0.00 0.00 40 1011.8
20260905133404 63 113 1.0 4.0 0.00 0.00 0.00 40 1011.8
20260905133204 62 114 1.0 3.0 0.00 0.00 0.00 41 1011.8
20260905133004 62 113 1.0 2.0 0.00 0.00 0.00 41 1011.8
20260905132804 62 108 1.0 2.0 0.00 0.00 0.00 41 1011.8
20260905132625 62 103 1.0 2.0 0.00 0.00 0.00 42 1011.7
20260905132404 62 98 1.0 2.0 0.00 0.00 0.00 42 1011.5
20260905132204 62 94 1.0 3.0 0.00 0.00 0.00 42 1011.6
20260905132004 62 90 2.0 3.0 0.00 0.00 0.00 42 1011.5
20260905131825 62 87 2.0 3.0 0.00 0.00 0.00 42 1011.5
20260905131604 62 88 1.0 3.0 0.00 0.00 0.00 43 1011.4
20260905131404 62 87 2.0 3.0 0.00 0.00 0.00 43 1011.3
20260905131204 63 86 2.0 3.0 0.00 0.00 0.00 43 1011.4
20260905131004 63 86 2.0 3.0 0.00 0.00 0.00 43 1011.4
20260905130804 63 85 2.0 3.0 0.00 0.00 0.00 43 1011.4
20260905130604 63 84 2.0 3.0 0.00 0.00 0.00 43 1011.4
20260905130404 62 84 2.0 3.0 0.00 0.00 0.00 44 1011.4
20260905130204 62 84 2.0 3.0 0.00 0.00 0.00 44 1011.4
20260905130004 62 83 2.0 3.0 0.00 0.00 0.00 45 1011.3
20260905125804 62 84 2.0 3.0 0.00 0.00 0.00 45 1011.4
20260905125625 61 84 2.0 3.0 0.00 0.00 0.00 46 1011.4
20260905125404 61 84 2.0 4.0 0.00 0.00 0.00 45 1011.4
20260905125204 61 84 2.0 4.0 0.00 0.00 0.00 45 1011.4
20260905125025 61 84 2.0 4.0 0.00 0.00 0.00 45 1011.5
20260905124804 61 85 2.0 4.0 0.00 0.00 0.00 45 1011.5
20260905124604 61 85 1.0 4.0 0.00 0.00 0.00 45 1011.4
20260905124404 61 84 1.0 4.0 0.00 0.00 0.00 45 1011.5
20260905124204 61 83 0.0 3.0 0.00 0.00 0.00 45 1011.5
20260905124004 61 88 0.0 1.0 0.00 0.00 0.00 45 1011.5
20260905123804 60 0 0.0 0.0 0.00 0.00 0.00 45 1011.5
20260905123604 60 89 0.0 1.0 0.00 0.00 0.00 45 1011.5
20260905123404 60 89 0.0 1.0 0.00 0.00 0.00 45 1011.4
20260905123225 61 89 0.0 1.0 0.00 0.00 0.00 45 1011.4
20260905123025 61 89 0.0 1.0 0.00 0.00 0.00 45 1011.4
20260905122804 61 89 0.0 1.0 0.00 0.00 0.00 45 1011.3
20260905122604 61 0 0.0 0.0 0.00 0.00 0.00 44 1011.3
20260905122404 61 0 0.0 0.0 0.00 0.00 0.00 45 1011.3
20260905122204 61 0 0.0 0.0 0.00 0.00 0.00 45 1011.3
20260905122004 61 0 0.0 0.0 0.00 0.00 0.00 45 1011.3
20260905121805 61 0 0.0 0.0 0.00 0.00 0.00 45 1011.3
20260905121604 61 0 0.0 0.0 0.00 0.00 0.00 45 1011.3
20260905121404 62 0 0.0 0.0 0.00 0.00 0.00 45 1011.3
20260905121204 62 0 0.0 0.0 0.00 0.00 0.00 44 1011.3
20260905121004 62 0 0.0 0.0 0.00 0.00 0.00 45 1011.2
20260905120804 62 0 0.0 0.0 0.00 0.00 0.00 45 1011.3
20260905120604 62 0 0.0 0.0 0.00 0.00 0.00 45 1011.3
20260905120404 62 0 0.0 0.0 0.00 0.00 0.00 46 1011.3
20260905120225 62 88 0.0 1.0 0.00 0.00 0.00 46 1011.2
20260905120025 61 87 0.0 1.0 0.00 0.00 0.00 46 1011.3
20260905115804 61 87 1.0 3.0 0.00 0.00 0.00 47 1011.2
20260905115604 61 87 1.0 3.0 0.00 0.00 0.00 47 1011.3
20260905115404 61 87 1.0 3.0 0.00 0.00 0.00 47 1011.2
20260905115204 61 87 0.0 3.0 0.00 0.00 0.00 47 1011.2
20260905115004 61 86 0.0 3.0 0.00 0.00 0.00 47 1011.2
20260905114804 60 86 0.0 2.0 0.00 0.00 0.00 48 1011.2
20260905114604 60 85 1.0 2.0 0.00 0.00 0.00 48 1011.2
20260905114425 60 85 1.0 2.0 0.00 0.00 0.00 48 1011.2
20260905114204 61 85 1.0 2.0 0.00 0.00 0.00 48 1011.2
20260905114004 61 84 1.0 2.0 0.00 0.00 0.00 47 1011.2
20260905113804 61 83 0.0 2.0 0.00 0.00 0.00 47 1011.2
20260905113604 61 84 0.0 2.0 0.00 0.00 0.00 47 1011.2
20260905113404 61 0 0.0 0.0 0.00 0.00 0.00 47 1011.2
20260905113204 61 0 0.0 0.0 0.00 0.00 0.00 47 1011.1
20260905113004 61 91 0.0 1.0 0.00 0.00 0.00 47 1011.2
20260905112804 61 91 0.0 1.0 0.00 0.00 0.00 47 1011.2
20260905112604 61 91 0.0 1.0 0.00 0.00 0.00 47 1011.1
20260905112425 61 91 0.0 1.0 0.00 0.00 0.00 48 1011.1
20260905112204 61 91 0.0 1.0 0.00 0.00 0.00 48 1011.1
20260905112005 61 0 0.0 0.0 0.00 0.00 0.00 48 1011.2
20260905111805 61 89 0.0 1.0 0.00 0.00 0.00 48 1011.2
20260905111604 61 85 0.0 2.0 0.00 0.00 0.00 47 1011.3
20260905111404 61 85 0.0 2.0 0.00 0.00 0.00 47 1011.2
20260905111204 61 85 0.0 2.0 0.00 0.00 0.00 47 1011.3
20260905111004 61 85 0.0 2.0 0.00 0.00 0.00 47 1011.3
20260905110804 61 85 0.0 2.0 0.00 0.00 0.00 47 1011.3
20260905110604 61 87 0.0 2.0 0.00 0.00 0.00 47 1011.4
20260905110404 61 85 1.0 2.0 0.00 0.00 0.00 47 1011.4
20260905110204 61 85 1.0 2.0 0.00 0.00 0.00 46 1011.4
20260905110004 61 85 1.0 2.0 0.00 0.00 0.00 46 1011.4
20260905105804 61 85 1.0 2.0 0.00 0.00 0.00 46 1011.4
20260905105625 61 83 0.0 2.0 0.00 0.00 0.00 46 1011.4
20260905105404 61 0 0.0 0.0 0.00 0.00 0.00 47 1011.4
20260905105204 62 112 0.0 1.0 0.00 0.00 0.00 46 1011.5
20260905105004 62 112 0.0 1.0 0.00 0.00 0.00 46 1011.5
20260905104804 62 112 0.0 1.0 0.00 0.00 0.00 46 1011.4
20260905104604 62 112 0.0 1.0 0.00 0.00 0.00 47 1011.4
20260905104404 62 89 0.0 1.0 0.00 0.00 0.00 47 1011.5
20260905104204 62 88 0.0 2.0 0.00 0.00 0.00 48 1011.4
20260905104004 62 88 0.0 2.0 0.00 0.00 0.00 48 1011.4
20260905103804 62 88 0.0 2.0 0.00 0.00 0.00 48 1011.4
20260905103604 62 88 0.0 2.0 0.00 0.00 0.00 47 1011.3
20260905103404 62 88 0.0 2.0 0.00 0.00 0.00 47 1011.4
20260905103204 62 88 0.0 2.0 0.00 0.00 0.00 48 1011.4
20260905103004 62 87 0.0 2.0 0.00 0.00 0.00 48 1011.4
20260905102804 62 87 0.0 2.0 0.00 0.00 0.00 48 1011.3
20260905102604 61 87 0.0 2.0 0.00 0.00 0.00 48 1011.4
20260905102425 61 87 0.0 2.0 0.00 0.00 0.00 47 1011.4
20260905102204 62 87 0.0 2.0 0.00 0.00 0.00 47 1011.4
20260905102004 62 92 0.0 2.0 0.00 0.00 0.00 47 1011.4
20260905101804 62 88 1.0 3.0 0.00 0.00 0.00 48 1011.4
20260905101604 62 87 1.0 3.0 0.00 0.00 0.00 48 1011.4
20260905101404 62 86 1.0 3.0 0.00 0.00 0.00 48 1011.4
20260905101225 62 85 1.0 3.0 0.00 0.00 0.00 48 1011.4
20260905101004 62 84 2.0 3.0 0.00 0.00 0.00 48 1011.4
20260905100825 62 84 2.0 3.0 0.00 0.00 0.00 49 1011.4
20260905100604 62 84 2.0 3.0 0.00 0.00 0.00 50 1011.5
20260905100404 62 85 2.0 3.0 0.00 0.00 0.00 50 1011.4
20260905100225 62 86 2.0 3.0 0.00 0.00 0.00 50 1011.4
20260905100004 62 86 1.0 3.0 0.00 0.00 0.00 50 1011.4
20260905095804 62 86 1.0 3.0 0.00 0.00 0.00 50 1011.4
20260905095604 62 86 1.0 3.0 0.00 0.00 0.00 50 1011.5
20260905095425 62 87 1.0 3.0 0.00 0.00 0.00 50 1011.4
20260905095204 62 87 0.0 3.0 0.00 0.00 0.00 50 1011.5
20260905095004 61 87 0.0 3.0 0.00 0.00 0.00 50 1011.5
20260905094804 61 87 0.0 3.0 0.00 0.00 0.00 50 1011.5
20260905094604 61 87 0.0 3.0 0.00 0.00 0.00 50 1011.4
20260905094404 61 84 0.0 2.0 0.00 0.00 0.00 50 1011.5
20260905094204 62 84 0.0 2.0 0.00 0.00 0.00 50 1011.5
20260905094005 62 84 0.0 2.0 0.00 0.00 0.00 50 1011.5
20260905093825 62 84 0.0 2.0 0.00 0.00 0.00 49 1011.4
20260905093625 62 0 0.0 0.0 0.00 0.00 0.00 50 1011.5
20260905093404 62 85 0.0 1.0 0.00 0.00 0.00 49 1011.5
20260905093204 62 85 0.0 1.0 0.00 0.00 0.00 49 1011.5
20260905093004 62 85 0.0 1.0 0.00 0.00 0.00 49 1011.5
20260905092804 62 85 0.0 1.0 0.00 0.00 0.00 49 1011.5
20260905092604 62 85 0.0 1.0 0.00 0.00 0.00 49 1011.5
20260905092404 62 0 0.0 0.0 0.00 0.00 0.00 48 1011.5
20260905092225 62 0 0.0 0.0 0.00 0.00 0.00 49 1011.4
20260905092004 62 0 0.0 0.0 0.00 0.00 0.00 49 1011.4
20260905091804 62 0 0.0 0.0 0.00 0.00 0.00 49 1011.4
20260905091604 62 0 0.0 0.0 0.00 0.00 0.00 50 1011.4
20260905091404 62 0 0.0 0.0 0.00 0.00 0.00 50 1011.4
20260905091225 62 0 0.0 0.0 0.00 0.00 0.00 51 1011.5
20260905091004 62 85 0.0 2.0 0.00 0.00 0.00 52 1011.4
20260905090804 62 85 0.0 2.0 0.00 0.00 0.00 52 1011.4
20260905090604 62 85 0.0 2.0 0.00 0.00 0.00 52 1011.4
20260905090404 62 85 0.0 2.0 0.00 0.00 0.00 52 1011.4
20260905090204 62 85 0.0 3.0 0.00 0.00 0.00 52 1011.5
20260905090004 62 82 0.0 3.0 0.00 0.00 0.00 51 1011.5
20260905085804 62 80 0.0 3.0 0.00 0.00 0.00 52 1011.5
20260905085604 62 85 0.0 3.0 0.00 0.00 0.00 52 1011.5
20260905085404 62 88 1.0 3.0 0.00 0.00 0.00 52 1011.5
20260905085225 62 88 1.0 3.0 0.00 0.00 0.00 52 1011.5
20260905085004 62 93 0.0 3.0 0.00 0.00 0.00 52 1011.6
20260905084804 62 93 0.0 3.0 0.00 0.00 0.00 52 1011.6
20260905084604 62 93 0.0 3.0 0.00 0.00 0.00 52 1011.7
20260905084404 62 89 0.0 2.0 0.00 0.00 0.00 52 1011.7
20260905084204 62 0 0.0 0.0 0.00 0.00 0.00 51 1011.7
20260905084004 62 0 0.0 0.0 0.00 0.00 0.00 50 1011.8
20260905083825 63 0 0.0 0.0 0.00 0.00 0.00 49 1011.8
20260905083604 64 98 0.0 2.0 0.00 0.00 0.00 47 1011.8
20260905083404 64 101 0.0 2.0 0.00 0.00 0.00 46 1011.9
20260905083204 64 97 1.0 2.0 0.00 0.00 0.00 46 1011.9
20260905083004 65 96 1.0 2.0 0.00 0.00 0.00 45 1011.9
20260905082826 65 95 1.0 2.0 0.00 0.00 0.00 46 1011.9
20260905082625 64 96 1.0 2.0 0.00 0.00 0.00 46 1011.9
20260905082404 64 94 1.0 2.0 0.00 0.00 0.00 48 1011.9
20260905082225 64 95 1.0 2.0 0.00 0.00 0.00 49 1011.9
20260905082004 64 97 1.0 2.0 0.00 0.00 0.00 50 1012.0
20260905081825 64 98 0.0 2.0 0.00 0.00 0.00 51 1012.0
20260905081604 64 111 1.0 4.0 0.00 0.00 0.00 52 1012.0
20260905081404 63 120 1.0 4.0 0.00 0.00 0.00 55 1012.0
20260905081204 63 123 1.0 4.0 0.00 0.00 0.00 56 1012.0
20260905081004 63 123 2.0 4.0 0.00 0.00 0.00 57 1012.0
20260905080804 63 123 2.0 4.0 0.00 0.00 0.00 57 1012.0
20260905080625 63 123 2.0 4.0 0.00 0.00 0.00 57 1012.0
20260905080404 63 123 1.0 3.0 0.00 0.00 0.00 58 1012.0
20260905080205 63 119 1.0 3.0 0.00 0.00 0.00 59 1011.9
20260905080004 62 116 0.0 3.0 0.00 0.00 0.00 59 1011.9
20260905075804 62 100 0.0 3.0 0.00 0.00 0.00 61 1011.9
20260905075604 62 89 1.0 3.0 0.00 0.00 0.00 60 1011.9
20260905075425 62 90 1.0 3.0 0.00 0.00 0.00 59 1011.9
20260905075204 62 90 1.0 3.0 0.00 0.00 0.00 57 1011.9
20260905075004 62 92 1.0 3.0 0.00 0.00 0.00 57 1011.9
20260905074804 62 94 1.0 3.0 0.00 0.00 0.00 57 1011.9
20260905074604 62 99 1.0 3.0 0.00 0.00 0.00 54 1012.0
20260905074404 63 102 1.0 3.0 0.00 0.00 0.00 53 1012.0
20260905074204 63 106 1.0 3.0 0.00 0.00 0.00 52 1011.9
20260905074004 63 108 1.0 3.0 0.00 0.00 0.00 51 1011.9
20260905073804 63 111 1.0 3.0 0.00 0.00 0.00 50 1012.0
20260905073604 63 113 1.0 3.0 0.00 0.00 0.00 49 1011.9
20260905073404 62 114 1.0 3.0 0.00 0.00 0.00 50 1011.9
20260905073204 62 115 1.0 3.0 0.00 0.00 0.00 50 1011.9
20260905073004 62 115 1.0 3.0 0.00 0.00 0.00 52 1011.9
20260905072804 62 113 1.0 3.0 0.00 0.00 0.00 56 1011.9
20260905072604 62 114 1.0 3.0 0.00 0.00 0.00 59 1011.9
20260905072404 61 115 0.0 3.0 0.00 0.00 0.00 68 1011.9
20260905072204 61 115 0.0 1.0 0.00 0.00 0.00 68 1011.9
20260905072004 61 110 0.0 2.0 0.00 0.00 0.00 67 1011.9
20260905071804 62 102 0.0 2.0 0.00 0.00 0.00 68 1011.9
20260905071604 62 102 0.0 2.0 0.00 0.00 0.00 67 1011.8
20260905071425 62 102 0.0 2.0 0.00 0.00 0.00 68 1011.8
20260905071204 61 102 0.0 2.0 0.00 0.00 0.00 68 1011.8
20260905071025 61 105 0.0 1.0 0.00 0.00 0.00 68 1011.7
20260905070804 61 96 0.0 1.0 0.00 0.00 0.00 69 1011.7
20260905070604 61 96 0.0 1.0 0.00 0.00 0.00 66 1011.7
20260905070404 62 96 0.0 1.0 0.00 0.00 0.00 66 1011.6
20260905070204 62 96 0.0 1.0 0.00 0.00 0.00 67 1011.6
20260905070004 62 0 0.0 0.0 0.00 0.00 0.00 69 1011.6
20260905065804 62 0 0.0 0.0 0.00 0.00 0.00 70 1011.5
20260905065604 62 0 0.0 0.0 0.00 0.00 0.00 70 1011.5
20260905065425 62 0 0.0 0.0 0.00 0.00 0.00 70 1011.5
20260905065204 62 0 0.0 0.0 0.00 0.00 0.00 69 1011.5
20260905065004 62 133 0.0 1.0 0.00 0.00 0.00 69 1011.5
20260905064804 62 133 0.0 1.0 0.00 0.00 0.00 70 1011.5
20260905064604 62 133 0.0 1.0 0.00 0.00 0.00 70 1011.5
20260905064425 62 133 0.0 1.0 0.00 0.00 0.00 71 1011.5
20260905064204 62 133 0.0 1.0 0.00 0.00 0.00 71 1011.5
20260905064004 62 0 0.0 0.0 0.00 0.00 0.00 70 1011.5
20260905063804 62 83 0.0 2.0 0.00 0.00 0.00 70 1011.4
20260905063604 62 84 0.0 2.0 0.00 0.00 0.00 71 1011.5
20260905063425 62 85 1.0 2.0 0.00 0.00 0.00 71 1011.4
20260905063204 62 86 1.0 2.0 0.00 0.00 0.00 71 1011.3
20260905063004 62 86 1.0 2.0 0.00 0.00 0.00 71 1011.3
20260905062804 62 87 1.0 2.0 0.00 0.00 0.00 71 1011.3
20260905062604 62 88 0.0 2.0 0.00 0.00 0.00 71 1011.3
20260905062425 62 87 0.0 2.0 0.00 0.00 0.00 71 1011.3
20260905062225 62 84 0.0 2.0 0.00 0.00 0.00 71 1011.3
20260905062004 62 93 0.0 1.0 0.00 0.00 0.00 71 1011.3
20260905061804 62 93 0.0 1.0 0.00 0.00 0.00 71 1011.3
20260905061604 62 93 0.0 1.0 0.00 0.00 0.00 71 1011.3
20260905061403 62 100 0.0 1.0 0.00 0.00 0.00 71 1011.3
20260905061204 62 100 0.0 1.0 0.00 0.00 0.00 71 1011.3
20260905061025 62 100 0.0 1.0 0.00 0.00 0.00 71 1011.3
20260905060803 63 100 0.0 1.0 0.00 0.00 0.00 71 1011.3
20260905060604 63 100 0.0 1.0 0.00 0.00 0.00 71 1011.3
20260905060404 62 91 0.0 2.0 0.00 0.00 0.00 71 1011.3
20260905060204 63 91 0.0 2.0 0.00 0.00 0.00 71 1011.3
20260905060004 63 91 0.0 2.0 0.00 0.00 0.00 70 1011.3
20260905055804 63 88 0.0 2.0 0.00 0.00 0.00 70 1011.4
20260905055625 63 88 0.0 2.0 0.00 0.00 0.00 70 1011.3
20260905055404 63 84 0.0 2.0 0.00 0.00 0.00 69 1011.3
20260905055204 63 84 0.0 2.0 0.00 0.00 0.00 69 1011.3
20260905055004 64 84 0.0 2.0 0.00 0.00 0.00 69 1011.3
20260905054804 64 0 0.0 0.0 0.00 0.00 0.00 69 1011.3
20260905054604 64 0 0.0 0.0 0.00 0.00 0.00 69 1011.3
20260905054404 64 0 0.0 0.0 0.00 0.00 0.00 69 1011.3
20260905054204 64 0 0.0 0.0 0.00 0.00 0.00 70 1011.3
20260905054025 64 0 0.0 0.0 0.00 0.00 0.00 70 1011.3
20260905053804 63 0 0.0 0.0 0.00 0.00 0.00 70 1011.3
20260905053604 63 0 0.0 0.0 0.00 0.00 0.00 69 1011.3
20260905053404 63 0 0.0 0.0 0.00 0.00 0.00 69 1011.3
20260905053204 63 0 0.0 0.0 0.00 0.00 0.00 69 1011.3
20260905053004 63 0 0.0 0.0 0.00 0.00 0.00 68 1011.4
20260905052804 63 0 0.0 0.0 0.00 0.00 0.00 68 1011.3
20260905052603 63 0 0.0 0.0 0.00 0.00 0.00 68 1011.3
20260905052404 64 0 0.0 0.0 0.00 0.00 0.00 68 1011.3
20260905052204 64 0 0.0 0.0 0.00 0.00 0.00 68 1011.3
20260905052025 64 0 0.0 0.0 0.00 0.00 0.00 68 1011.4
20260905051804 64 0 0.0 0.0 0.00 0.00 0.00 67 1011.3
20260905051604 64 0 0.0 0.0 0.00 0.00 0.00 67 1011.3
20260905051404 64 0 0.0 0.0 0.00 0.00 0.00 67 1011.3
20260905051203 64 0 0.0 0.0 0.00 0.00 0.00 67 1011.3
20260905051004 64 0 0.0 0.0 0.00 0.00 0.00 67 1011.4
20260905050804 64 0 0.0 0.0 0.00 0.00 0.00 68 1011.4
20260905050604 64 0 0.0 0.0 0.00 0.00 0.00 68 1011.4
20260905050405 64 89 0.0 1.0 0.00 0.00 0.00 68 1011.3
20260905050204 64 89 0.0 2.0 0.00 0.00 0.00 68 1011.3
20260905050026 64 88 0.0 2.0 0.00 0.00 0.00 68 1011.4
20260905045825 64 90 0.0 3.0 0.00 0.00 0.00 68 1011.4
20260905045604 64 91 0.0 3.0 0.00 0.00 0.00 68 1011.4
20260905045404 64 91 1.0 3.0 0.00 0.00 0.00 68 1011.4
20260905045204 64 91 1.0 3.0 0.00 0.00 0.00 68 1011.4
20260905045004 64 92 1.0 3.0 0.00 0.00 0.00 68 1011.5
20260905044825 64 92 1.0 3.0 0.00 0.00 0.00 68 1011.5
20260905044604 64 93 1.0 3.0 0.00 0.00 0.00 68 1011.5
20260905044404 64 93 1.0 3.0 0.00 0.00 0.00 68 1011.5
20260905044203 64 93 1.0 3.0 0.00 0.00 0.00 68 1011.4
20260905044025 64 92 1.0 3.0 0.00 0.00 0.00 68 1011.4
20260905043804 64 92 1.0 3.0 0.00 0.00 0.00 68 1011.4
20260905043625 64 90 1.0 3.0 0.00 0.00 0.00 68 1011.4
20260905043404 64 88 1.0 3.0 0.00 0.00 0.00 67 1011.4
20260905043204 64 88 1.0 3.0 0.00 0.00 0.00 67 1011.4
20260905043004 64 88 1.0 3.0 0.00 0.00 0.00 68 1011.4
20260905042804 64 85 0.0 3.0 0.00 0.00 0.00 68 1011.4
20260905042603 65 78 0.0 2.0 0.00 0.00 0.00 68 1011.4
20260905042404 65 0 0.0 0.0 0.00 0.00 0.00 68 1011.3
20260905042204 65 0 0.0 0.0 0.00 0.00 0.00 68 1011.3
20260905042004 65 0 0.0 0.0 0.00 0.00 0.00 68 1011.3
20260905041805 65 0 0.0 0.0 0.00 0.00 0.00 68 1011.2
20260905041604 64 86 0.0 1.0 0.00 0.00 0.00 68 1011.2